Time,TemperatureF,DewpointF,PressureIn,WindDirection,WindDirectionDegrees,WindSpeedMPH,WindSpeedGustMPH,Humidity,HourlyPrecipIn,Conditions,Clouds,dailyrainin,SoftwareType,DateUTC
2013-03-05 00:01:00,61.0,21.0,29.93,NW,312,0.0,14.0,21,0.00,,,0.00,,2013-03-05 06:01:00,
2013-03-05 00:11:00,61.0,21.0,29.93,NW,312,0.0,14.0,21,0.00,,,0.00,,2013-03-05 06:11:00,
2013-03-05 00:22:00,63.0,20.0,29.96,NW,319,6.0,13.0,19,0.00,,,0.00,,2013-03-05 06:22:00,
2013-03-05 00:31:00,63.0,20.0,29.96,NW,319,6.0,13.0,19,0.00,,,0.00,,2013-03-05 06:31:00,
2013-03-05 00:42:00,63.0,20.0,29.96,NW,319,6.0,13.0,19,0.00,,,0.00,,2013-03-05 06:42:00,
2013-03-05 00:52:00,62.0,19.0,29.98,West,280,8.0,22.0,19,0.00,,,0.00,,2013-03-05 06:52:00,
2013-03-05 01:01:00,62.0,19.0,29.98,West,280,8.0,22.0,19,0.00,,,0.00,,2013-03-05 07:01:00,
2013-03-05 01:11:00,62.0,19.0,29.98,West,280,8.0,22.0,19,0.00,,,0.00,,2013-03-05 07:11:00,
2013-03-05 01:22:00,61.0,18.0,30.00,WNW,301,0.0,17.0,19,0.00,,,0.00,,2013-03-05 07:22:00,
2013-03-05 01:31:00,61.0,18.0,30.00,WNW,301,0.0,17.0,19,0.00,,,0.00,,2013-03-05 07:31:00,
2013-03-05 01:42:00,61.0,18.0,30.00,WNW,301,0.0,17.0,19,0.00,,,0.00,,2013-03-05 07:42:00,
2013-03-05 01:52:00,61.0,18.0,30.01,WNW,294,8.0,18.0,19,0.00,,,0.00,,2013-03-05 07:52:00,
2013-03-05 02:02:00,61.0,18.0,30.01,WNW,294,8.0,18.0,19,0.00,,,0.00,,2013-03-05 08:02:00,
2013-03-05 02:11:00,61.0,18.0,30.01,WNW,294,8.0,18.0,19,0.00,,,0.00,,2013-03-05 08:11:00,
2013-03-05 02:21:00,60.0,18.0,30.03,NNW,343,8.0,13.0,19,0.00,,,0.00,,2013-03-05 08:21:00,
2013-03-05 02:31:00,60.0,18.0,30.03,NNW,343,8.0,13.0,19,0.00,,,0.00,,2013-03-05 08:31:00,
2013-03-05 02:42:00,60.0,18.0,30.03,NNW,343,8.0,13.0,19,0.00,,,0.00,,2013-03-05 08:42:00,
2013-03-05 02:52:00,60.0,16.0,30.06,NW,311,6.0,13.0,18,0.00,,,0.00,,2013-03-05 08:52:00,
2013-03-05 03:01:00,60.0,16.0,30.06,NW,311,6.0,13.0,18,0.00,,,0.00,,2013-03-05 09:01:00,
2013-03-05 03:11:00,60.0,16.0,30.06,NW,311,6.0,13.0,18,0.00,,,0.00,,2013-03-05 09:11:00,
2013-03-05 03:21:00,59.0,14.0,30.04,NW,325,0.0,12.0,17,0.00,,,0.00,,2013-03-05 09:21:00,
2013-03-05 03:31:00,59.0,14.0,30.04,NW,325,0.0,12.0,17,0.00,,,0.00,,2013-03-05 09:31:00,
2013-03-05 03:43:00,59.0,14.0,30.04,NW,325,0.0,12.0,17,0.00,,,0.00,,2013-03-05 09:43:00,
2013-03-05 03:52:00,58.0,18.0,30.06,East,82,4.0,14.0,21,0.00,,,0.00,,2013-03-05 09:52:00,
2013-03-05 04:01:00,58.0,18.0,30.06,East,82,4.0,14.0,21,0.00,,,0.00,,2013-03-05 10:01:00,
2013-03-05 04:11:00,58.0,18.0,30.06,East,82,4.0,14.0,21,0.00,,,0.00,,2013-03-05 10:11:00,
2013-03-05 04:21:00,52.0,27.0,30.10,East,100,3.0,19.0,38,0.00,,,0.00,,2013-03-05 10:21:00,
2013-03-05 04:32:00,52.0,27.0,30.10,East,100,3.0,19.0,38,0.00,,,0.00,,2013-03-05 10:32:00,
2013-03-05 04:42:00,52.0,27.0,30.10,East,100,3.0,19.0,38,0.00,,,0.00,,2013-03-05 10:42:00,
2013-03-05 04:52:00,46.0,33.0,30.14,SSW,205,2.0,17.0,60,0.00,,,0.00,,2013-03-05 10:52:00,
2013-03-05 05:01:00,46.0,33.0,30.14,SSW,205,2.0,17.0,60,0.00,,,0.00,,2013-03-05 11:01:00,
2013-03-05 05:11:00,46.0,33.0,30.14,SSW,205,2.0,17.0,60,0.00,,,0.00,,2013-03-05 11:11:00,
2013-03-05 05:22:00,42.0,31.0,30.17,NE,44,9.0,19.0,65,0.00,,,0.00,,2013-03-05 11:22:00,
2013-03-05 05:32:00,42.0,31.0,30.17,NE,44,9.0,19.0,65,0.00,,,0.00,,2013-03-05 11:32:00,
2013-03-05 05:42:00,42.0,31.0,30.17,NE,44,9.0,19.0,65,0.00,,,0.00,,2013-03-05 11:42:00,
2013-03-05 05:52:00,41.0,32.0,30.17,NNE,14,10.0,22.0,70,0.00,,,0.00,,2013-03-05 11:52:00,
2013-03-05 06:02:00,41.0,32.0,30.17,NNE,14,10.0,22.0,70,0.00,,,0.00,,2013-03-05 12:02:00,
2013-03-05 06:12:00,41.0,32.0,30.17,NNE,14,10.0,22.0,70,0.00,,,0.00,,2013-03-05 12:12:00,
2013-03-05 06:22:00,38.0,28.0,30.21,North,3,7.0,19.0,68,0.00,,,0.00,,2013-03-05 12:22:00,
2013-03-05 06:32:00,38.0,28.0,30.21,North,3,7.0,19.0,68,0.00,,,0.00,,2013-03-05 12:32:00,
2013-03-05 06:42:00,38.0,28.0,30.21,North,3,7.0,19.0,68,0.00,,,0.00,,2013-03-05 12:42:00,
2013-03-05 06:52:00,36.0,27.0,30.22,South,182,7.0,20.0,69,0.00,,,0.00,,2013-03-05 12:52:00,
2013-03-05 07:02:00,36.0,27.0,30.22,South,182,7.0,20.0,69,0.00,,,0.00,,2013-03-05 13:02:00,
2013-03-05 07:11:00,36.0,27.0,30.22,South,182,7.0,20.0,69,0.00,,,0.00,,2013-03-05 13:11:00,
2013-03-05 07:21:00,36.0,27.0,30.23,NNE,25,6.0,18.0,70,0.00,,,0.00,,2013-03-05 13:21:00,
2013-03-05 07:32:00,36.0,27.0,30.23,NNE,25,6.0,18.0,70,0.00,,,0.00,,2013-03-05 13:32:00,
2013-03-05 07:42:00,36.0,27.0,30.23,NNE,25,6.0,18.0,70,0.00,,,0.00,,2013-03-05 13:42:00,
2013-03-05 07:52:00,36.0,27.0,30.26,NE,37,4.0,16.0,70,0.00,,,0.00,,2013-03-05 13:52:00,
2013-03-05 08:02:00,36.0,27.0,30.26,NE,37,4.0,16.0,70,0.00,,,0.00,,2013-03-05 14:02:00,
2013-03-05 08:11:00,36.0,27.0,30.26,NE,37,4.0,16.0,70,0.00,,,0.00,,2013-03-05 14:11:00,
2013-03-05 08:21:00,35.0,26.0,30.26,NE,37,6.0,18.0,69,0.00,,,0.00,,2013-03-05 14:21:00,
2013-03-05 08:32:00,35.0,26.0,30.26,NE,37,6.0,18.0,69,0.00,,,0.00,,2013-03-05 14:32:00,
2013-03-05 08:42:00,35.0,26.0,30.26,NE,37,6.0,18.0,69,0.00,,,0.00,,2013-03-05 14:42:00,
2013-03-05 08:52:00,35.0,26.0,30.28,WSW,253,0.0,7.0,68,0.00,,,0.00,,2013-03-05 14:52:00,
2013-03-05 09:01:00,35.0,26.0,30.28,WSW,253,0.0,7.0,68,0.00,,,0.00,,2013-03-05 15:01:00,
2013-03-05 09:11:00,35.0,26.0,30.28,WSW,253,0.0,7.0,68,0.00,,,0.00,,2013-03-05 15:11:00,
2013-03-05 09:21:00,36.0,26.0,30.29,West,267,0.0,11.0,67,0.00,,,0.00,,2013-03-05 15:21:00,
2013-03-05 09:32:00,36.0,26.0,30.29,West,267,0.0,11.0,67,0.00,,,0.00,,2013-03-05 15:32:00,
2013-03-05 09:42:00,36.0,26.0,30.29,West,267,0.0,11.0,67,0.00,,,0.00,,2013-03-05 15:42:00,
2013-03-05 09:52:00,37.0,26.0,30.29,North,356,4.0,11.0,64,0.00,,,0.00,,2013-03-05 15:52:00,
2013-03-05 10:01:00,37.0,26.0,30.29,North,356,4.0,11.0,64,0.00,,,0.00,,2013-03-05 16:01:00,
2013-03-05 10:11:00,37.0,26.0,30.29,North,356,4.0,11.0,64,0.00,,,0.00,,2013-03-05 16:11:00,
2013-03-05 10:21:00,38.0,25.0,30.31,ESE,110,0.0,8.0,58,0.00,,,0.00,,2013-03-05 16:21:00,
2013-03-05 10:32:00,38.0,25.0,30.31,ESE,110,0.0,8.0,58,0.00,,,0.00,,2013-03-05 16:32:00,
2013-03-05 10:42:00,38.0,25.0,30.31,ESE,110,0.0,8.0,58,0.00,,,0.00,,2013-03-05 16:42:00,
2013-03-05 10:52:00,42.0,25.0,30.29,East,97,0.0,5.0,50,0.00,,,0.00,,2013-03-05 16:52:00,
2013-03-05 11:01:00,42.0,25.0,30.29,East,97,0.0,5.0,50,0.00,,,0.00,,2013-03-05 17:01:00,
2013-03-05 11:11:00,42.0,25.0,30.29,East,97,0.0,5.0,50,0.00,,,0.00,,2013-03-05 17:11:00,
2013-03-05 11:21:00,43.0,24.0,30.31,ESE,112,2.0,7.0,47,0.00,,,0.00,,2013-03-05 17:21:00,
2013-03-05 11:32:00,43.0,24.0,30.31,ESE,112,2.0,7.0,47,0.00,,,0.00,,2013-03-05 17:32:00,
2013-03-05 11:42:00,43.0,24.0,30.31,ESE,112,2.0,7.0,47,0.00,,,0.00,,2013-03-05 17:42:00,
2013-03-05 11:52:00,44.0,24.0,30.30,ESE,116,1.0,8.0,45,0.00,,,0.00,,2013-03-05 17:52:00,
2013-03-05 12:01:00,44.0,24.0,30.30,ESE,116,1.0,8.0,45,0.00,,,0.00,,2013-03-05 18:01:00,
2013-03-05 12:11:00,44.0,24.0,30.30,ESE,116,1.0,8.0,45,0.00,,,0.00,,2013-03-05 18:11:00,
2013-03-05 12:21:00,45.0,23.0,30.29,ENE,62,3.0,10.0,41,0.00,,,0.00,,2013-03-05 18:21:00,
2013-03-05 12:32:00,45.0,23.0,30.29,ENE,62,3.0,10.0,41,0.00,,,0.00,,2013-03-05 18:32:00,
2013-03-05 12:42:00,45.0,23.0,30.29,ENE,62,3.0,10.0,41,0.00,,,0.00,,2013-03-05 18:42:00,
2013-03-05 12:53:00,47.0,23.0,30.28,East,86,2.0,8.0,38,0.00,,,0.00,,2013-03-05 18:53:00,
2013-03-05 13:01:00,47.0,23.0,30.28,East,86,2.0,8.0,38,0.00,,,0.00,,2013-03-05 19:01:00,
2013-03-05 13:11:00,47.0,23.0,30.28,East,86,2.0,8.0,38,0.00,,,0.00,,2013-03-05 19:11:00,
2013-03-05 13:21:00,49.0,24.0,30.29,East,93,3.0,12.0,37,0.00,,,0.00,,2013-03-05 19:21:00,
2013-03-05 13:32:00,49.0,24.0,30.29,East,93,3.0,12.0,37,0.00,,,0.00,,2013-03-05 19:32:00,
2013-03-05 13:42:00,49.0,24.0,30.29,East,93,3.0,12.0,37,0.00,,,0.00,,2013-03-05 19:42:00,
2013-03-05 13:52:00,49.0,24.0,30.26,SE,124,2.0,8.0,37,0.00,,,0.00,,2013-03-05 19:52:00,
2013-03-05 14:01:00,49.0,24.0,30.26,SE,124,2.0,8.0,37,0.00,,,0.00,,2013-03-05 20:01:00,
2013-03-05 14:11:00,50.0,23.0,30.27,ENE,76,4.0,7.0,35,0.00,,,0.00,,2013-03-05 20:11:00,
2013-03-05 14:21:00,50.0,23.0,30.27,ENE,76,4.0,7.0,35,0.00,,,0.00,,2013-03-05 20:21:00,
2013-03-05 14:32:00,50.0,23.0,30.27,ENE,76,4.0,7.0,35,0.00,,,0.00,,2013-03-05 20:32:00,
2013-03-05 14:42:00,50.0,23.0,30.27,ENE,76,4.0,7.0,35,0.00,,,0.00,,2013-03-05 20:42:00,
2013-03-05 14:52:00,51.0,24.0,30.26,East,82,2.0,11.0,34,0.00,,,0.00,,2013-03-05 20:52:00,
2013-03-05 15:01:00,51.0,24.0,30.26,East,82,2.0,11.0,34,0.00,,,0.00,,2013-03-05 21:01:00,
2013-03-05 15:11:00,51.0,24.0,30.26,East,82,2.0,11.0,34,0.00,,,0.00,,2013-03-05 21:11:00,
2013-03-05 15:21:00,52.0,24.0,30.25,SE,128,2.0,6.0,33,0.00,,,0.00,,2013-03-05 21:21:00,
2013-03-05 15:31:00,52.0,24.0,30.25,SE,128,2.0,6.0,33,0.00,,,0.00,,2013-03-05 21:31:00,
2013-03-05 15:42:00,52.0,24.0,30.25,SE,128,2.0,6.0,33,0.00,,,0.00,,2013-03-05 21:42:00,
2013-03-05 15:52:00,54.0,24.0,30.22,ESE,113,0.0,6.0,31,0.00,,,0.00,,2013-03-05 21:52:00,
2013-03-05 16:01:00,54.0,24.0,30.22,ESE,113,0.0,6.0,31,0.00,,,0.00,,2013-03-05 22:01:00,
2013-03-05 16:11:00,54.0,24.0,30.22,ESE,113,0.0,6.0,31,0.00,,,0.00,,2013-03-05 22:11:00,
2013-03-05 16:21:00,55.0,23.0,30.22,ENE,78,0.0,6.0,29,0.00,,,0.00,,2013-03-05 22:21:00,
2013-03-05 16:32:00,55.0,23.0,30.22,ENE,78,0.0,6.0,29,0.00,,,0.00,,2013-03-05 22:32:00,
2013-03-05 16:42:00,55.0,23.0,30.22,ENE,78,0.0,6.0,29,0.00,,,0.00,,2013-03-05 22:42:00,
2013-03-05 16:52:00,55.0,23.0,30.21,North,10,1.0,7.0,29,0.00,,,0.00,,2013-03-05 22:52:00,
2013-03-05 17:01:00,55.0,23.0,30.21,North,10,1.0,7.0,29,0.00,,,0.00,,2013-03-05 23:01:00,
2013-03-05 17:11:00,55.0,23.0,30.21,North,10,1.0,7.0,29,0.00,,,0.00,,2013-03-05 23:11:00,
2013-03-05 17:21:00,55.0,23.0,30.20,SE,126,1.0,6.0,29,0.00,,,0.00,,2013-03-05 23:21:00,
2013-03-05 17:32:00,55.0,23.0,30.20,SE,126,1.0,6.0,29,0.00,,,0.00,,2013-03-05 23:32:00,
2013-03-05 17:42:00,55.0,23.0,30.20,SE,126,1.0,6.0,29,0.00,,,0.00,,2013-03-05 23:42:00,
2013-03-05 17:53:00,54.0,22.0,30.19,ESE,123,0.0,7.0,29,0.00,,,0.00,,2013-03-05 23:53:00,
2013-03-05 18:01:00,54.0,22.0,30.19,ESE,123,0.0,7.0,29,0.00,,,0.00,,2013-03-06 00:01:00,
2013-03-05 18:11:00,54.0,22.0,30.19,ESE,123,0.0,7.0,29,0.00,,,0.00,,2013-03-06 00:11:00,
2013-03-05 18:21:00,53.0,23.0,30.18,ESE,121,0.0,0.0,31,0.00,,,0.00,,2013-03-06 00:21:00,
2013-03-05 18:32:00,53.0,23.0,30.18,ESE,121,0.0,0.0,31,0.00,,,0.00,,2013-03-06 00:32:00,
2013-03-05 18:42:00,53.0,23.0,30.18,ESE,121,0.0,0.0,31,0.00,,,0.00,,2013-03-06 00:42:00,
2013-03-05 18:52:00,52.0,23.0,30.20,SE,128,0.0,0.0,32,0.00,,,0.00,,2013-03-06 00:52:00,
2013-03-05 19:01:00,52.0,23.0,30.20,SE,128,0.0,0.0,32,0.00,,,0.00,,2013-03-06 01:01:00,
2013-03-05 19:11:00,52.0,23.0,30.20,SE,128,0.0,0.0,32,0.00,,,0.00,,2013-03-06 01:11:00,
2013-03-05 19:21:00,49.0,23.0,30.20,SE,128,0.0,0.0,35,0.00,,,0.00,,2013-03-06 01:21:00,
2013-03-05 19:32:00,49.0,23.0,30.20,SE,128,0.0,0.0,35,0.00,,,0.00,,2013-03-06 01:32:00,
2013-03-05 19:42:00,49.0,23.0,30.20,SE,128,0.0,0.0,35,0.00,,,0.00,,2013-03-06 01:42:00,
2013-03-05 19:52:00,46.0,22.0,30.20,SE,143,0.0,0.0,39,0.00,,,0.00,,2013-03-06 01:52:00,
2013-03-05 20:01:00,46.0,22.0,30.20,SE,143,0.0,0.0,39,0.00,,,0.00,,2013-03-06 02:01:00,
2013-03-05 20:11:00,46.0,22.0,30.20,SE,143,0.0,0.0,39,0.00,,,0.00,,2013-03-06 02:11:00,
2013-03-05 20:22:00,45.0,22.0,30.21,ESE,117,0.0,0.0,40,0.00,,,0.00,,2013-03-06 02:22:00,
2013-03-05 20:31:00,45.0,22.0,30.21,ESE,117,0.0,0.0,40,0.00,,,0.00,,2013-03-06 02:31:00,
2013-03-05 20:42:00,45.0,22.0,30.21,ESE,117,0.0,0.0,40,0.00,,,0.00,,2013-03-06 02:42:00,
2013-03-05 20:52:00,43.0,22.0,30.22,ESE,117,0.0,0.0,42,0.00,,,0.00,,2013-03-06 02:52:00,
2013-03-05 21:01:00,43.0,22.0,30.22,ESE,117,0.0,0.0,42,0.00,,,0.00,,2013-03-06 03:01:00,
2013-03-05 21:11:00,43.0,22.0,30.22,ESE,117,0.0,0.0,42,0.00,,,0.00,,2013-03-06 03:11:00,
2013-03-05 21:22:00,42.0,22.0,30.22,ESE,117,0.0,0.0,44,0.00,,,0.00,,2013-03-06 03:22:00,
2013-03-05 21:32:00,42.0,22.0,30.22,ESE,117,0.0,0.0,44,0.00,,,0.00,,2013-03-06 03:32:00,
2013-03-05 21:42:00,42.0,22.0,30.22,ESE,117,0.0,0.0,44,0.00,,,0.00,,2013-03-06 03:42:00,
2013-03-05 21:52:00,41.0,21.0,30.22,ESE,117,0.0,0.0,45,0.00,,,0.00,,2013-03-06 03:52:00,
2013-03-05 22:02:00,41.0,21.0,30.22,ESE,117,0.0,0.0,45,0.00,,,0.00,,2013-03-06 04:02:00,
2013-03-05 22:11:00,41.0,21.0,30.22,ESE,117,0.0,0.0,45,0.00,,,0.00,,2013-03-06 04:11:00,
2013-03-05 22:21:00,40.0,21.0,30.22,ESE,117,0.0,0.0,47,0.00,,,0.00,,2013-03-06 04:21:00,
2013-03-05 22:32:00,40.0,21.0,30.22,ESE,117,0.0,0.0,47,0.00,,,0.00,,2013-03-06 04:32:00,
2013-03-05 22:42:00,40.0,21.0,30.22,ESE,117,0.0,0.0,47,0.00,,,0.00,,2013-03-06 04:42:00,
2013-03-05 22:52:00,39.0,21.0,30.23,SSW,209,0.0,0.0,49,0.00,,,0.00,,2013-03-06 04:52:00,
2013-03-05 23:01:00,39.0,21.0,30.23,SSW,209,0.0,0.0,49,0.00,,,0.00,,2013-03-06 05:01:00,
2013-03-05 23:11:00,39.0,20.0,30.22,SSW,209,0.0,0.0,47,0.00,,,0.00,,2013-03-06 05:11:00,
2013-03-05 23:22:00,39.0,20.0,30.22,SSW,209,0.0,0.0,47,0.00,,,0.00,,2013-03-06 05:22:00,
2013-03-05 23:32:00,39.0,20.0,30.22,SSW,209,0.0,0.0,47,0.00,,,0.00,,2013-03-06 05:32:00,
2013-03-05 23:42:00,39.0,20.0,30.22,SSW,209,0.0,0.0,47,0.00,,,0.00,,2013-03-06 05:42:00,
2013-03-05 23:52:00,38.0,21.0,30.22,SSW,209,0.0,0.0,49,0.00,,,0.00,,2013-03-06 05:52:00,